This is the latest recevied weather packets stored in our database for station/object DJ0JJ-11. If no packets are shown the sender has not sent any weather packets the latest 10 day(s).
| Time | Temp. | Humidity | Pressure | Rain* | Wind** | Luminosity | Snow |
|---|---|---|---|---|---|---|---|
| 1777458482 | 17.78° C | 37% | 1021.9 hPa | - | - | - | - |
| 1777457582 | 17.22° C | 38% | 1021.9 hPa | - | - | - | - |
| 1777456682 | 16.67° C | 38% | 1021.9 hPa | - | - | - | - |
| 1777455782 | 16.67° C | 39% | 1022 hPa | - | - | - | - |
| 1777454882 | 16.11° C | 38% | 1021.9 hPa | - | - | - | - |
| 1777453981 | 16.11° C | 38% | 1022 hPa | - | - | - | - |
| 1777453081 | 15.56° C | 38% | 1022 hPa | - | - | - | - |
| 1777452181 | 15° C | 38% | 1022 hPa | - | - | - | - |
| 1777451281 | 15° C | 39% | 1022 hPa | - | - | - | - |
| 1777450381 | 14.44° C | 41% | 1022.1 hPa | - | - | - | - |
| 1777449481 | 14.44° C | 41% | 1022.1 hPa | - | - | - | - |
| 1777448580 | 13.89° C | 42% | 1022 hPa | - | - | - | - |
| 1777447680 | 13.33° C | 41% | 1022 hPa | - | - | - | - |
| 1777446780 | 12.78° C | 42% | 1022 hPa | - | - | - | - |
| 1777445880 | 12.78° C | 42% | 1022 hPa | - | - | - | - |
| 1777444980 | 12.22° C | 42% | 1021.9 hPa | - | - | - | - |
| 1777444080 | 11.67° C | 42% | 1021.9 hPa | - | - | - | - |
| 1777443180 | 11.67° C | 43% | 1021.6 hPa | - | - | - | - |
| 1777442280 | 11.11° C | 44% | 1021.7 hPa | - | - | - | - |
| 1777441379 | 11.11° C | 45% | 1021.6 hPa | - | - | - | - |
| 1777440479 | 10.56° C | 45% | 1021.5 hPa | - | - | - | - |
| 1777439579 | 10.56° C | 45% | 1021.2 hPa | - | - | - | - |
| 1777438679 | 10.56° C | 45% | 1021 hPa | - | - | - | - |
| 1777437779 | 10.56° C | 46% | 1020.9 hPa | - | - | - | - |
| 1777436879 | 10.56° C | 47% | 1020.7 hPa | - | - | - | - |
* Rain since midnight (hover to see other rain measurements)
** Current wind speed in m/s (hover to see current wind gust speed)